Regional Weather Roundup
Issued by NWS

Home | Current Version | Previous Version | Text Only | Print | Product List | Glossary Off
Versions: 1 2 3 4 5 6 7 8 9 10 11 12 13 14 15 16 17 18 19 20 21 22 23 24 25 26 27 28 29 30 31 32 33 34 35 36 37 38 39 40 41 42 43 44 45 46 47 48 49 50

000
ASUS45 KSLC 021310
RWRUT

UTAH REGIONAL WEATHER ROUNDUP
NATIONAL WEATHER SERVICE SALT LAKE CITY UT
700 AM MDT THU JUL 02 2015

UTZ001>011-023>025-021400-

NORTHERN UTAH

CITY           SKY/WX    TMP DP  RH WIND       PRES   REMARKS
HILL AFB       PTCLDY    70  47  45 E15       30.09R
LOGAN          PTCLDY    59  52  77 CALM      30.08R HAZE
OGDEN          PTCLDY    71  49  45 S8        30.06R
PROVO AIRPORT  MOCLDY    68  48  49 S3        30.09R
SALT LAKE CITY MOCLDY    77  51  40 S7        30.04R
VERNAL         PTSUNNY   65  49  56 CALM      30.12R
WENDOVER       CLEAR     82  46  28 CALM      30.07R
WEST JORDAN    CLEAR     72  46  40 SW3       30.09R

$$

UTZ012>022-026-027-021400-

SOUTHERN/CENTRAL UTAH

CITY           SKY/WX    TMP DP  RH WIND       PRES   REMARKS
BRYCE CANYON   CLOUDY    59  52  77 NW6       30.35R
CEDAR CITY     LGT RAIN  71  53  52 SE12      30.20R
MILFORD        MOCLDY    70  51  51 SW10      30.12S
MOAB/CYNLANDS  PTCLDY    79  54  41 SE9       30.04R
PRICE          MOCLDY    77  39  25 NW7       30.15R
ST GEORGE      MOSUNNY   81  61  50 NE6       30.02R
KANAB          CLOUDY    68  63  83 CALM      30.21R

$$

REGIONAL REPORTS     COLORADO/ARIZONA

CITY           SKY/WX    TMP DP  RH WIND       PRES   REMARKS
CRAIG, CO      PTSUNNY   56  50  80 CALM      30.22R
GRAND JUNCTION PTSUNNY   76  51  41 SE7       30.07R
RIFLE          PTSUNNY   64  50  60 CALM      30.15R
MONTROSE       CLOUDY    73  51  46 SE10      30.19R
CORTEZ         SUNNY     68  54  60 E9        30.22S
PAGE, AZ       CLOUDY    80  54  40 S9        30.09R
GRAND CANYON   PTCLDY    59  57  93 CALM      30.29S
KINGMAN        CLOUDY    72  65  78 CALM      30.07R
FLAGSTAFF      MOCLDY    55  55 100 CALM      30.31S

$$

REGIONAL REPORTS    NEVADA/IDAHO/WYOMING

CITY           SKY/WX    TMP DP  RH WIND       PRES   REMARKS
LAS VEGAS, NV  CLOUDY    85  64  49 S13       29.94R
ELY            CLOUDY    61  53  75 SE6       30.26R
ELKO           MOCLDY    67  50  54 E7        30.19R
POCATELLO, ID  CLEAR     62  55  77 SE3       30.11R
BURLEY         CLEAR     62  50  64 E3        30.07R
EVANSTON, WY   MOSUNNY   60  41  49 SE8       30.29R
ROCK SPRINGS   MOSUNNY   62  51  67 CALM      30.29R

$$



USA.gov is the U.S. government's official web portal to all federal, state and local government web resources and services.